Flag for Nicaragua Weather past 2 weeks in Masaya, Nicaragua

Now
86 °F

Passing clouds.


Feels Like: 88 °F
Forecast: N/A
Wind: 9 mph from Southeast

Location: Managua A. C. Sandino

Current Time: Dec 22, 2014 at 5:41:56 PM

Latest Report: Dec 22, 2014 at 5:00 PM


Visibility: N/A

Pressure: 29.74 "Hg

Humidity: 52%

Dew point: 66 °F

Location of MasayaLocation

Historic Weather in Masaya — Graph

°F

Masaya temperature yesterday

Maximum temperature yesterday: 90 °F (at 1:00 PM)
Minimum temperature yesterday: 70 °F (at 3:00 AM)
Average temperature yesterday: 80 °F

Past Weeks' High & Low Weather Summary

 TemperatureHumidityPressure
High91 °F (Dec 17, 3:00 PM)94% (Dec 9, 5:00 AM)30.01 "Hg (Dec 9, 5:00 AM)
Low66 °F (Dec 12, 4:00 AM)40% (Dec 8, 2:00 PM)29.71 "Hg (Dec 22, 4:00 PM)
Average80 °F67%29.88 "Hg
* Reported Dec 7 4:00 PM — Dec 22 4:00 PM, Masaya, Weather by CustomWeather, © 2014

Note: Actual official high and low records may vary slightly from our data, if they occured in-between our weather recording intervals... More about our weather records

Advertising

Masaya weather history for previous 24 hours

 ConditionsComfort  
Time TempWeatherWind HumidityBarometerVisibility
4:00 PM
Dec 22
88 °FPassing clouds.12 mph49%29.71 "HgN/A
3:00 PM88 °FPassing clouds.14 mph49%29.74 "HgN/A
2:00 PM90 °FPassing clouds.18 mph46%29.77 "HgN/A
1:00 PM88 °FScattered clouds.14 mph49%29.80 "HgN/A
12:00 PM88 °FScattered clouds.18 mph49%29.83 "HgN/A
11:00 AM84 °FScattered clouds.9 mph58%29.86 "HgN/A
10:00 AM84 °FScattered clouds.7 mph58%29.89 "HgN/A
9:00 AM81 °FPassing clouds.5 mph66%29.89 "HgN/A
8:00 AM79 °FPassing clouds.5 mph70%29.89 "HgN/A
7:00 AM72 °FScattered clouds.5 mph88%29.89 "HgN/A
6:00 AM70 °FPassing clouds.No wind88%29.86 "HgN/A
5:00 AM72 °FPassing clouds.No wind88%29.83 "HgN/A
4:00 AM73 °FPassing clouds.No wind83%29.83 "HgN/A
3:00 AM73 °FPassing clouds.5 mph83%29.83 "HgN/A
12:00 AM75 °FPassing clouds.No wind83%29.86 "HgN/A
11:00 PM
Dec 21
75 °FPassing clouds.5 mph83%29.86 "HgN/A
10:00 PM77 °FPassing clouds.5 mph83%29.86 "HgN/A
9:00 PM77 °FPassing clouds.5 mph79%29.86 "HgN/A
8:00 PM79 °FPassing clouds.5 mph79%29.86 "HgN/A
7:00 PM79 °FPassing clouds.5 mph79%29.83 "HgN/A
6:00 PM82 °FPassing clouds.7 mph58%29.80 "HgN/A
5:00 PM86 °FPassing clouds.9 mph49%29.80 "HgN/A
Weather by CustomWeather, © 2014

See weather overviewHow to use our weather pages